This demonstration page uses our WeatherBlox Daily Observations layout. Learn more.

39.51506, -84.39828

Hourly Observations for November 10, 2019

Temp ( °F °C ) Dew Point ( °F °C ) Humidity (%) Winds ( mph kmh ) Pressure ( in mb ) Visibility ( mi km ) Precip ( " mm )
12:15 am 00:15 Partly Cloudy 37 2.7 29 -1.9 72 72 SSW 3 6 30.06 1018 10 16.0934 0 0
12:35 am 00:35 Clear 38 3.5 27 -3 63 63 S 5 7 30.05 1017 10 16.0934 0 0
12:55 am 00:55 Clear 39 3.9 27 -2.9 62 62 Calm 30.05 1018 10 16.0934 0 0
1:15 am 01:15 Clear 39 3.9 28 -2.3 64 64 SSW 5 7 30.04 1017 10 16.0934 0 0
1:35 am 01:35 Clear 40 4.3 28 -2.1 63 63 SSW 8 13 30.04 1017 10 16.0934 0 0
1:55 am 01:55 Clear 40 4.5 28 -2.2 62 62 SW 9 15 30.04 1017 10 16.0934 0 0
2:15 am 02:15 Clear 40 4.5 28 -2.3 62 62 SW 9 15 30.04 1017 10 16.0934 0 0
2:35 am 02:35 Clear 40 4.3 29 -1.9 64 64 SW 8 13 30.04 1017 10 16.0934 0 0
2:55 am 02:55 Clear 40 4.5 29 -1.8 64 64 SW 9 15 30.05 1018 10 16.0934 0 0
3:15 am 03:15 Clear 40 4.2 29 -1.9 65 65 SW 9 15 30.05 1018 10 16.0934 0 0
3:35 am 03:35 Clear 39 3.9 29 -1.7 67 67 SSW 7 11 30.05 1018 10 16.0934 0 0
3:55 am 03:55 Clear 38 3.3 29 -1.9 69 69 SW 6 9 30.06 1018 10 16.0934 0 0
4:15 am 04:15 Clear 37 2.6 29 -1.7 74 74 SSW 6 9 30.05 1018 10 16.0934 0 0
4:35 am 04:35 Clear 37 2.7 29 -1.4 75 75 SW 3 6 30.06 1018 10 16.0934 0 0
4:55 am 04:55 Clear 37 2.8 29 -1.9 72 72 SSW 5 7 30.06 1018 10 16.0934 0 0
5:15 am 05:15 Clear 38 3.5 30 -1 73 73 SSW 5 7 30.06 1018 10 16.0934 0 0
5:35 am 05:35 Clear 39 4.1 30 -1.2 69 69 SSW 5 7 30.05 1018 10 16.0934 0 0
5:55 am 05:55 Clear 39 4 30 -1.1 70 70 SSW 6 9 30.05 1018 10 16.0934 0 0
6:15 am 06:15 Clear 38 3.1 29 -1.4 73 73 SSW 6 9 30.06 1018 10 16.0934 0 0
6:35 am 06:35 Clear 39 3.8 30 -0.9 72 72 SSW 5 7 30.07 1018 10 16.0934 0 0
6:55 am 06:55 Clear 39 4 31 -0.3 74 74 SW 8 13 30.07 1018 10 16.0934 0 0
7:15 am 07:15 Clear 40 4.6 31 -0.6 69 69 S 5 7 30.06 1018 10 16.0934 0 0
7:35 am 07:35 Sunny 40 4.5 31 -0.4 71 71 SSW 6 9 30.07 1018 10 16.0934 0 0
7:55 am 07:55 Cloudy 42 5.3 31 -0.3 67 67 SSW 3 6 30.08 1019 10 16.0934 0 0
8:15 am 08:15 Cloudy 42 5.6 33 0.3 69 69 SSW 3 6 30.08 1019 10 16.0934 0 0
8:35 am 08:35 Mostly Cloudy 43 5.9 32 0.2 67 67 SSW 7 11 30.08 1019 10 16.0934 0 0
8:55 am 08:55 Partly Cloudy 44 6.5 34 0.9 68 68 SW 5 7 30.08 1019 10 16.0934 0 0
9:15 am 09:15 Partly Cloudy 45 7 34 0.9 65 65 SSW 7 11 30.08 1019 10 16.0934 0 0
9:35 am 09:35 Sunny 46 7.5 33 0.8 63 63 SSW 8 13 30.07 1018 10 16.0934 0 0
9:55 am 09:55 Sunny 47 8.3 34 1.1 61 61 SSW 10 17 30.05 1018 10 16.0934 0 0
10:15 am 10:15 Sunny 48 9 34 1.2 58 58 SSW 10 17 30.05 1018 10 16.0934 0 0
10:35 am 10:35 Sunny 51 10.4 35 1.8 56 56 SSW 12 19 30.05 1018 10 16.0934 0 0
10:55 am 10:55 Sunny 51 10.6 35 1.9 55 55 S 10 17 30.04 1017 10 16.0934 0 0
11:15 am 11:15 Sunny 52 11.1 36 2.1 54 54 SW 10 17 30.04 1017 10 16.0934 0 0
11:35 am 11:35 Sunny 53 11.6 36 2.3 53 53 SW 12 19 30.03 1017 10 16.0934 0 0
11:55 am 11:55 Sunny 54 12.3 37 2.5 51 51 S 10 17 30.01 1016 10 16.0934 0 0
12:15 pm 12:15 Sunny 56 13.2 37 2.9 50 50 SSW 12 19 30.01 1016 10 16.0934 0 0
12:35 pm 12:35 Sunny 58 14.2 37 3 47 47 SW 10 17 30 1016 10 16.0934 0 0
12:55 pm 12:55 Sunny 58 14.7 38 3.2 46 46 SW 9 15 29.99 1015 10 16.0934 0 0
1:15 pm 13:15 Sunny 59 14.9 38 3.1 45 45 SW 10 17 29.99 1015 10 16.0934 0 0
1:35 pm 13:35 Sunny 59 15.2 38 3.3 45 45 SW 9 15 29.98 1015 10 16.0934 0 0
1:55 pm 13:55 Sunny 61 15.9 39 3.8 45 45 SSW 12 19 29.96 1015 10 16.0934 0 0
2:15 pm 14:15 Sunny 62 16.4 39 4.1 44 44 SSW 14 22 29.95 1014 10 16.0934 0 0
2:35 pm 14:35 Sunny 62 16.7 40 4.3 44 44 SW 12 19 29.94 1014 10 16.0934 0 0
2:55 pm 14:55 Sunny 62 16.8 39 4.1 43 43 SSW 14 22 29.92 1013 10 16.0934 0 0
3:15 pm 15:15 Sunny 63 17.1 40 4.3 43 43 SSW 13 20 29.92 1013 10 16.0934 0 0
3:35 pm 15:35 Sunny 63 17.1 39 4.1 42 42 SSW 13 20 29.91 1013 10 16.0934 0 0
3:55 pm 15:55 Sunny 63 17 40 4.5 44 44 SW 9 15 29.92 1013 10 16.0934 0 0
4:15 pm 16:15 Sunny 62 16.7 40 4.6 45 45 SW 9 15 29.94 1014 10 16.0934 0 0
4:35 pm 16:35 Sunny 61 16.2 40 4.6 46 46 SW 9 15 29.94 1014 10 16.0934 0 0
4:55 pm 16:55 Sunny 59 15.2 40 4.7 50 50 SW 8 13 29.95 1014 10 16.0934 0 0
5:15 pm 17:15 Sunny 57 13.7 40 4.6 54 54 WSW 3 6 29.96 1015 10 16.0934 0 0
5:35 pm 17:35 Mostly Cloudy 54 12.3 39 4.1 58 58 WSW 3 6 29.96 1015 10 16.0934 0 0
5:55 pm 17:55 Mostly Cloudy 52 11.1 41 5 66 66 Calm 29.97 1015 10 16.0934 0 0
6:15 pm 18:15 Cloudy 51 10.3 42 5.6 73 73 Calm 29.98 1015 10 16.0934 0 0
6:35 pm 18:35 Cloudy 49 9.7 43 6 78 78 Calm 29.98 1015 10 16.0934 0 0
6:55 pm 18:55 Cloudy 50 10.1 42 5.8 75 75 Calm 29.98 1015 10 16.0934 0 0
7:15 pm 19:15 Cloudy 50 10 42 5.7 75 75 Calm 29.99 1016 10 16.0934 0 0
7:35 pm 19:35 Mostly Cloudy 48 8.9 43 6 82 82 Calm 30 1016 10 16.0934 0 0
7:55 pm 19:55 Cloudy 48 8.7 42 5.6 81 81 N 5 7 30.01 1016 10 16.0934 0 0
8:15 pm 20:15 Mostly Cloudy 49 9.5 42 5.4 76 76 Calm 30 1016 10 16.0934 0 0
8:35 pm 20:35 Cloudy 46 8 43 6 87 87 Calm 30.01 1016 10 16.0934 0 0
8:55 pm 20:55 Cloudy 48 8.8 43 6.2 84 84 Calm 30.01 1016 10 16.0934 0 0
9:15 pm 21:15 Cloudy 47 8.6 44 6.6 87 87 Calm 30.02 1017 10 16.0934 0 0
9:35 pm 21:35 Cloudy 48 8.9 44 6.4 85 85 Calm 30.02 1017 10 16.0934 0 0
9:55 pm 21:55 Cloudy 48 8.7 44 6.4 86 86 Calm 30.02 1017 10 16.0934 0 0
10:15 pm 22:15 Cloudy 48 9 44 6.5 85 85 Calm 30.03 1017 10 16.0934 0 0
10:35 pm 22:35 Cloudy 48 9.1 44 6.5 84 84 Calm 30.02 1017 10 16.0934 0 0
10:55 pm 22:55 Cloudy 48 8.7 44 6.5 86 86 Calm 30.03 1017 10 16.0934 0 0
11:15 pm 23:15 Cloudy 48 9.1 44 6.6 85 85 Calm 30.03 1017 10 16.0934 0 0
11:35 pm 23:35 Cloudy 48 9.1 43 6.1 82 82 Calm 30.03 1017 10 16.0934 0 0
11:55 pm 23:55 Cloudy 47 8.5 44 6.5 87 87 Calm 30.03 1017 10 16.0934 0 0

Powered by AerisWeather